DW4379 Weather Reports


Display with metric or nautical units.
time (UTC)temp
F
wind
direction
speed
MPH
gust
MPH
rain 1hr
in
rain 24hr
in
rain mn
in
humidity
%
barometer
mb
20260831233008 93 211 0.0 1.0 0.00 0.00 0.00 55 1014.5
20260831232503 93 210 0.0 1.0 0.00 0.00 0.00 54 1014.4
20260831232003 94 0 0.0 0.0 0.00 0.00 0.00 53 1014.3
20260831231503 94 0 0.0 0.0 0.00 0.00 0.00 54 1014.5
20260831231004 94 102 0.0 1.0 0.00 0.00 0.00 53 1014.4
20260831230504 94 102 0.0 1.0 0.00 0.00 0.00 52 1014.4
20260831230003 94 0 0.0 0.0 0.00 0.00 0.00 52 1014.4
20260831225503 94 0 0.0 0.0 0.00 0.00 0.00 53 1014.5
20260831225003 94 230 0.0 3.0 0.00 0.00 0.00 52 1014.5
20260831224717 94 230 0.0 3.0 0.00 0.00 0.00 51 1014.4
20260831224004 95 258 0.0 1.0 0.00 0.00 0.00 51 1014.5
20260831223503 95 0 0.0 0.0 0.00 0.00 0.00 52 1014.6
20260831223219 95 0 0.0 0.0 0.00 0.00 0.00 50 1014.5
20260831222504 95 167 0.0 1.0 0.00 0.00 0.00 49 1014.4
20260831222218 95 182 0.0 1.0 0.00 0.00 0.00 49 1014.5
20260831221503 95 192 0.0 2.0 0.00 0.00 0.00 49 1014.5
20260831221003 95 167 0.0 2.0 0.00 0.00 0.00 51 1014.5
20260831220504 95 148 0.0 2.0 0.00 0.00 0.00 49 1014.6
20260831220218 95 156 0.0 2.0 0.00 0.00 0.00 49 1014.5
20260831215503 96 232 0.0 6.0 0.00 0.00 0.00 49 1014.4
20260831215003 96 218 0.0 6.0 0.00 0.00 0.00 49 1014.5
20260831214717 96 176 0.0 6.0 0.00 0.00 0.00 50 1014.5
20260831214003 95 118 0.0 4.0 0.00 0.00 0.00 49 1014.5
20260831213504 95 140 0.0 5.0 0.00 0.00 0.00 51 1014.5
20260831213004 96 175 1.0 5.0 0.00 0.00 0.00 49 1014.4
20260831212504 96 216 1.0 4.0 0.00 0.00 0.00 49 1014.5
20260831212003 96 179 0.0 4.0 0.00 0.00 0.00 48 1014.6
20260831211503 96 134 0.0 2.0 0.00 0.00 0.00 49 1014.5
20260831211004 96 166 0.0 2.0 0.00 0.00 0.00 49 1014.6
20260831210503 96 182 0.0 2.0 0.00 0.00 0.00 47 1014.7
20260831210003 96 225 0.0 3.0 0.00 0.00 0.00 48 1014.8
20260831205504 95 129 1.0 4.0 0.00 0.00 0.00 47 1014.8
20260831205003 96 139 1.0 4.0 0.00 0.00 0.00 47 1014.8
20260831204503 96 151 1.0 3.0 0.00 0.00 0.00 49 1014.8
20260831204004 96 136 1.0 3.0 0.00 0.00 0.00 48 1015.0
20260831203503 96 165 1.0 3.0 0.00 0.00 0.00 48 1015.0
20260831203004 96 148 0.0 3.0 0.00 0.00 0.00 47 1014.9
20260831202504 96 64 0.0 3.0 0.00 0.00 0.00 45 1015.0
20260831202003 96 116 1.0 5.0 0.00 0.00 0.00 48 1015.2
20260831201503 96 120 1.0 5.0 0.00 0.00 0.00 47 1015.2
20260831201003 96 120 1.0 5.0 0.00 0.00 0.00 47 1015.3
20260831200504 97 253 0.0 3.0 0.00 0.00 0.00 46 1015.4
20260831200004 97 250 0.0 3.0 0.00 0.00 0.00 45 1015.6
20260831195503 97 228 0.0 4.0 0.00 0.00 0.00 46 1015.6
20260831195004 97 145 0.0 4.0 0.00 0.00 0.00 46 1015.7
20260831194503 97 122 1.0 4.0 0.00 0.00 0.00 48 1015.7
20260831194003 97 126 1.0 5.0 0.00 0.00 0.00 46 1015.7
20260831193503 97 132 1.0 5.0 0.00 0.00 0.00 46 1015.9
20260831193004 97 203 0.0 3.0 0.00 0.00 0.00 46 1015.8
20260831192504 97 222 0.0 3.0 0.00 0.00 0.00 46 1016.0
20260831192003 97 226 0.0 4.0 0.00 0.00 0.00 47 1015.9
20260831191503 97 200 0.0 6.0 0.00 0.00 0.00 48 1016.0
20260831191004 97 158 1.0 6.0 0.00 0.00 0.00 45 1016.0
20260831190718 97 147 1.0 5.0 0.00 0.00 0.00 49 1016.1
20260831190004 97 189 0.0 4.0 0.00 0.00 0.00 50 1016.2
20260831185718 97 192 0.0 4.0 0.00 0.00 0.00 49 1016.2
20260831185003 96 213 0.0 3.0 0.00 0.00 0.00 48 1016.3
20260831184718 96 248 0.0 2.0 0.00 0.00 0.00 50 1016.4
20260831184217 96 236 1.0 5.0 0.00 0.00 0.00 49 1016.5
20260831183504 96 226 0.0 3.0 0.00 0.00 0.00 51 1016.4
20260831183004 96 222 0.0 2.0 0.00 0.00 0.00 51 1016.4
20260831182503 95 169 0.0 4.0 0.00 0.00 0.00 51 1016.6
20260831182003 94 209 1.0 4.0 0.00 0.00 0.00 53 1016.7
20260831181504 94 221 1.0 4.0 0.00 0.00 0.00 53 1016.7
20260831181217 94 229 1.0 4.0 0.00 0.00 0.00 53 1016.6
20260831180718 94 236 0.0 4.0 0.00 0.00 0.00 55 1016.6
20260831180004 94 233 0.0 4.0 0.00 0.00 0.00 56 1016.7
20260831175503 93 218 0.0 3.0 0.00 0.00 0.00 55 1016.9
20260831175003 93 245 0.0 3.0 0.00 0.00 0.00 55 1016.9
20260831174504 93 247 1.0 3.0 0.00 0.00 0.00 56 1016.9
20260831174219 93 246 1.0 3.0 0.00 0.00 0.00 55 1017.0
20260831173503 93 263 0.0 2.0 0.00 0.00 0.00 57 1017.0
20260831173004 92 276 1.0 3.0 0.00 0.00 0.00 57 1016.9
20260831172504 92 266 0.0 3.0 0.00 0.00 0.00 57 1017.0
20260831172003 92 244 0.0 5.0 0.00 0.00 0.00 59 1017.1
20260831171503 92 250 1.0 5.0 0.00 0.00 0.00 60 1017.2
20260831171003 92 223 1.0 3.0 0.00 0.00 0.00 59 1017.1
20260831170504 92 212 1.0 3.0 0.00 0.00 0.00 59 1017.2
20260831170004 92 253 1.0 4.0 0.00 0.00 0.00 59 1017.2
20260831165503 91 253 1.0 4.0 0.00 0.00 0.00 59 1017.3
20260831165003 92 262 1.0 4.0 0.00 0.00 0.00 59 1017.4
20260831164718 92 250 1.0 4.0 0.00 0.00 0.00 60 1017.3
20260831164004 92 232 0.0 3.0 0.00 0.00 0.00 63 1017.3
20260831163503 92 229 0.0 4.0 0.00 0.00 0.00 63 1017.4
20260831163004 91 197 1.0 4.0 0.00 0.00 0.00 63 1017.3
20260831162504 91 150 1.0 4.0 0.00 0.00 0.00 64 1017.3
20260831162004 91 195 0.0 3.0 0.00 0.00 0.00 65 1017.3
20260831161503 90 198 0.0 3.0 0.00 0.00 0.00 67 1017.3
20260831161008 90 189 1.0 5.0 0.00 0.00 0.00 68 1017.3
20260831160717 89 183 1.0 5.0 0.00 0.00 0.00 69 1017.3
20260831160003 89 150 0.0 3.0 0.00 0.00 0.00 69 1017.2
20260831155717 89 143 0.0 4.0 0.00 0.00 0.00 70 1017.3
20260831155008 88 123 1.0 4.0 0.00 0.00 0.00 72 1017.4
20260831154717 88 125 1.0 3.0 0.00 0.00 0.00 73 1017.4
20260831154003 87 159 1.0 6.0 0.00 0.00 0.00 74 1017.3
20260831153503 87 181 1.0 3.0 0.00 0.00 0.00 75 1017.3
20260831153218 86 199 1.0 3.0 0.00 0.00 0.00 74 1017.3
20260831152504 86 152 1.0 4.0 0.00 0.00 0.00 76 1017.4
20260831152218 86 138 1.0 4.0 0.00 0.00 0.00 75 1017.3
20260831151504 85 119 0.0 4.0 0.00 0.00 0.00 77 1017.3
20260831151003 85 168 0.0 3.0 0.00 0.00 0.00 77 1017.3
20260831150503 84 216 0.0 2.0 0.00 0.00 0.00 77 1017.3
20260831150003 84 150 0.0 3.0 0.00 0.00 0.00 78 1017.2
20260831145504 84 143 0.0 3.0 0.00 0.00 0.00 79 1017.2
20260831145004 83 121 0.0 3.0 0.00 0.00 0.00 80 1017.3
20260831144503 82 114 1.0 3.0 0.00 0.00 0.00 81 1017.2
20260831144004 82 119 0.0 3.0 0.00 0.00 0.00 82 1017.2
20260831143504 81 114 0.0 3.0 0.00 0.00 0.00 83 1017.2
20260831143003 81 118 0.0 3.0 0.00 0.00 0.00 83 1017.2
20260831142504 80 192 0.0 1.0 0.00 0.00 0.00 84 1017.2
20260831142217 80 191 0.0 3.0 0.00 0.00 0.00 84 1017.2
20260831141503 80 189 0.0 3.0 0.00 0.00 0.00 84 1017.2
20260831141003 79 143 0.0 1.0 0.00 0.00 0.00 85 1017.1
20260831140504 79 143 0.0 1.0 0.00 0.00 0.00 84 1017.2
20260831140004 79 0 0.0 0.0 0.00 0.00 0.00 85 1017.1
20260831135504 79 0 0.0 0.0 0.00 0.00 0.00 85 1017.2
20260831135004 79 156 0.0 1.0 0.00 0.00 0.00 85 1017.2
20260831134503 78 159 0.0 1.0 0.00 0.00 0.00 85 1017.2
20260831134003 78 169 0.0 2.0 0.00 0.00 0.00 85 1017.1
20260831133503 78 178 0.0 2.0 0.00 0.00 0.00 86 1017.1
20260831133217 78 184 0.0 2.0 0.00 0.00 0.00 86 1017.1
20260831132503 78 182 0.0 1.0 0.00 0.00 0.00 86 1017.1
20260831132003 77 0 0.0 0.0 0.00 0.00 0.00 86 1017.1
20260831131718 77 161 0.0 1.0 0.00 0.00 0.00 86 1017.0
20260831131004 77 132 0.0 1.0 0.00 0.00 0.00 86 1016.9
20260831130504 77 113 0.0 1.0 0.00 0.00 0.00 86 1016.9
20260831130217 77 113 0.0 1.0 0.00 0.00 0.00 86 1016.9
20260831125504 77 128 0.0 3.0 0.00 0.00 0.00 87 1016.8
20260831125004 76 0 0.0 0.0 0.00 0.00 0.00 87 1016.8
20260831124504 76 104 0.0 2.0 0.00 0.00 0.00 87 1016.8
20260831124004 76 105 0.0 2.0 0.00 0.00 0.00 87 1016.7
20260831123503 75 116 0.0 1.0 0.00 0.00 0.00 88 1016.6
20260831123217 75 92 0.0 1.0 0.00 0.00 0.00 89 1016.6
20260831122503 73 89 0.0 1.0 0.00 0.00 0.00 90 1016.6
20260831122004 73 93 0.0 1.0 0.00 0.00 0.00 90 1016.6
20260831121503 72 93 0.0 1.0 0.00 0.00 0.00 90 1016.6
20260831121003 72 93 0.0 1.0 0.00 0.00 0.00 91 1016.5
20260831120503 72 91 0.0 1.0 0.00 0.00 0.00 90 1016.4
20260831120004 71 91 0.0 1.0 0.00 0.00 0.00 90 1016.4
20260831115503 71 91 0.0 1.0 0.00 0.00 0.00 90 1016.3
20260831115004 71 91 0.0 1.0 0.00 0.00 0.00 90 1016.3
20260831114504 71 0 0.0 0.0 0.00 0.00 0.00 90 1016.3
20260831114003 71 0 0.0 0.0 0.00 0.00 0.00 90 1016.3
20260831113503 71 91 0.0 1.0 0.00 0.00 0.00 90 1016.3
20260831113218 71 91 0.0 1.0 0.00 0.00 0.00 90 1016.2
20260831112717 71 92 0.0 1.0 0.00 0.00 0.00 89 1016.3
20260831112003 71 0 0.0 0.0 0.00 0.00 0.00 89 1016.2
20260831111503 72 92 0.0 1.0 0.00 0.00 0.00 88 1016.2
20260831111003 72 92 0.0 1.0 0.00 0.00 0.00 88 1016.1
20260831110504 72 94 0.0 1.0 0.00 0.00 0.00 88 1016.0
20260831110004 72 96 0.0 1.0 0.00 0.00 0.00 88 1016.1
20260831105504 72 97 0.0 1.0 0.00 0.00 0.00 88 1016.0
20260831105004 72 100 0.0 1.0 0.00 0.00 0.00 88 1015.9
20260831104503 72 101 0.0 1.0 0.00 0.00 0.00 88 1015.9
20260831104003 72 0 0.0 0.0 0.00 0.00 0.00 88 1015.8
20260831103504 72 0 0.0 0.0 0.00 0.00 0.00 88 1015.8
20260831103004 72 0 0.0 0.0 0.00 0.00 0.00 88 1015.8
20260831102504 72 0 0.0 0.0 0.00 0.00 0.00 88 1015.8
20260831102218 72 0 0.0 0.0 0.00 0.00 0.00 88 1015.8
20260831101717 72 0 0.0 0.0 0.00 0.00 0.00 88 1015.8
20260831101003 72 0 0.0 0.0 0.00 0.00 0.00 88 1015.7
20260831100504 72 110 0.0 1.0 0.00 0.00 0.00 88 1015.7
20260831100218 72 110 0.0 1.0 0.00 0.00 0.00 87 1015.7
20260831095503 72 0 0.0 0.0 0.00 0.00 0.00 87 1015.6
20260831095003 72 0 0.0 0.0 0.00 0.00 0.00 86 1015.6
20260831094503 72 0 0.0 0.0 0.00 0.00 0.00 86 1015.5
20260831094003 73 0 0.0 0.0 0.00 0.00 0.00 86 1015.6
20260831093504 73 0 0.0 0.0 0.00 0.00 0.00 86 1015.5
20260831093003 73 110 0.0 1.0 0.00 0.00 0.00 86 1015.4
20260831092504 72 110 0.0 1.0 0.00 0.00 0.00 86 1015.5
20260831092004 72 110 0.0 1.0 0.00 0.00 0.00 86 1015.6
20260831091719 72 110 0.0 1.0 0.00 0.00 0.00 86 1015.6
20260831091004 72 0 0.0 0.0 0.00 0.00 0.00 85 1015.7
20260831090504 73 110 0.0 1.0 0.00 0.00 0.00 85 1015.8
20260831090004 73 110 0.0 1.0 0.00 0.00 0.00 84 1015.7
20260831085503 74 0 0.0 0.0 0.00 0.00 0.00 83 1015.6
20260831085003 74 0 0.0 0.0 0.00 0.00 0.00 82 1015.7
20260831084503 74 0 0.0 0.0 0.00 0.00 0.00 82 1015.6
20260831084003 74 0 0.0 0.0 0.00 0.00 0.00 82 1015.5
20260831083504 74 0 0.0 0.0 0.00 0.00 0.00 82 1015.4
20260831083004 74 0 0.0 0.0 0.00 0.00 0.00 81 1015.3
20260831082503 74 0 0.0 0.0 0.00 0.00 0.00 81 1015.3
20260831082004 74 0 0.0 0.0 0.00 0.00 0.00 81 1015.3
20260831081718 74 0 0.0 0.0 0.00 0.00 0.00 81 1015.3
20260831081004 74 0 0.0 0.0 0.00 0.00 0.00 81 1015.3
20260831080503 75 0 0.0 0.0 0.00 0.00 0.00 80 1015.2
20260831080003 75 0 0.0 0.0 0.00 0.00 0.00 80 1015.3
20260831075504 75 0 0.0 0.0 0.00 0.00 0.00 79 1015.3
20260831075003 76 0 0.0 0.0 0.00 0.00 0.00 79 1015.2
20260831074504 76 117 0.0 1.0 0.00 0.00 0.00 78 1015.2
20260831074004 76 117 0.0 1.0 0.00 0.00 0.00 78 1015.2
20260831073503 76 0 0.0 0.0 0.00 0.00 0.00 78 1015.3
20260831073004 76 0 0.0 0.0 0.00 0.00 0.00 78 1015.3
20260831072504 76 0 0.0 0.0 0.00 0.00 0.00 78 1015.5
20260831072004 76 0 0.0 0.0 0.00 0.00 0.00 78 1015.5
20260831071504 76 0 0.0 0.0 0.00 0.00 0.00 78 1015.6
20260831071004 76 118 0.0 1.0 0.00 0.00 0.00 77 1015.7
20260831070503 76 102 0.0 2.0 0.00 0.00 0.00 77 1015.7
20260831070003 76 101 0.0 2.0 0.00 0.00 0.00 76 1015.7
20260831065503 76 0 0.0 0.0 0.00 0.00 0.00 76 1015.6
20260831065004 76 0 0.0 0.0 0.00 0.00 0.00 76 1015.7
20260831064503 76 0 0.0 0.0 0.00 0.00 0.00 76 1015.7
20260831064004 76 0 0.0 0.0 0.00 0.00 0.00 77 1015.7
20260831063504 77 0 0.0 0.0 0.00 0.00 0.00 77 1015.8
20260831063004 77 0 0.0 0.0 0.00 0.00 0.00 77 1015.9
20260831062718 77 0 0.0 0.0 0.00 0.00 0.00 76 1015.8
20260831062004 77 0 0.0 0.0 0.00 0.00 0.00 76 1015.9
20260831061503 77 178 0.0 1.0 0.00 0.00 0.00 76 1016.0
20260831061004 77 178 0.0 1.0 0.00 0.00 0.00 76 1016.0
20260831060503 77 0 0.0 0.0 0.00 0.00 0.00 76 1015.9
20260831060004 77 0 0.0 0.0 0.00 0.00 0.00 76 1016.0
20260831055504 78 0 0.0 0.0 0.00 0.00 0.00 76 1016.0
20260831055004 78 0 0.0 0.0 0.00 0.00 0.00 75 1015.9
20260831054503 78 115 0.0 2.0 0.00 0.00 0.00 75 1015.9
20260831054003 78 124 0.0 2.0 0.00 0.00 0.00 75 1015.9
20260831053717 78 159 0.0 1.0 0.00 0.00 0.00 75 1016.0
20260831053003 79 0 0.0 1.0 0.00 0.00 0.00 74 1016.1
20260831052717 79 0 0.0 0.0 0.00 0.00 0.00 73 1016.2
20260831052004 79 0 0.0 0.0 0.00 0.00 0.00 73 1016.3
20260831051503 79 0 0.0 0.0 0.00 0.00 0.00 72 1016.2
20260831051003 79 237 0.0 1.0 0.00 0.00 0.00 72 1016.1
20260831050503 80 237 0.0 1.0 0.00 0.00 0.00 72 1016.0
20260831050004 80 237 0.0 1.0 0.00 0.00 0.00 72 1015.8
20260831045503 80 237 0.0 1.0 0.00 0.00 0.00 72 1015.6
20260831045004 80 256 0.0 3.0 0.00 0.00 0.00 72 1015.6
20260831044717 80 203 0.0 3.0 0.00 0.00 0.00 71 1015.6
20260831044218 80 108 0.0 2.0 0.00 0.00 0.00 72 1015.4
20260831043717 80 0 0.0 0.0 0.00 0.00 0.00 71 1015.6
20260831043003 80 0 0.0 0.0 0.00 0.00 0.00 71 1015.7
20260831042504 80 0 0.0 0.0 0.00 0.00 0.00 71 1015.6
20260831042004 80 0 0.0 0.0 0.00 0.00 0.00 71 1015.7
20260831041503 80 0 0.0 0.0 0.00 0.00 0.00 71 1015.7
20260831040503 80 0 0.0 0.0 0.00 0.00 0.00 71 1015.7
20260831040009 80 0 0.0 0.0 0.00 0.00 0.00 72 1015.6
20260831035503 80 0 0.0 0.0 0.00 0.00 0.00 72 1015.6
20260831035003 80 0 0.0 0.0 0.00 0.00 0.00 72 1015.6
20260831034504 80 0 0.0 0.0 0.00 0.00 0.00 72 1015.5
20260831034003 80 0 0.0 0.0 0.00 0.00 0.00 72 1015.4
20260831033504 79 0 0.0 0.0 0.00 0.00 0.00 72 1015.6
20260831033004 79 0 0.0 0.0 0.00 0.00 0.00 74 1015.8
20260831032503 79 0 0.0 0.0 0.00 0.00 0.00 75 1015.9
20260831032004 78 0 0.0 0.0 0.00 0.00 0.00 76 1015.7
20260831031718 78 0 0.0 0.0 0.00 0.00 0.00 76 1015.7
20260831031003 78 0 0.0 0.0 0.00 0.00 0.00 79 1015.7
20260831030718 78 103 0.0 1.0 0.00 0.00 0.00 80 1015.7
20260831030003 78 103 0.0 1.0 0.00 0.00 0.00 80 1015.9
20260831025503 78 0 0.0 0.0 0.00 0.00 0.00 80 1015.9
20260831025003 78 0 0.0 0.0 0.00 0.00 0.00 79 1015.9
20260831024503 78 0 0.0 0.0 0.00 0.00 0.00 79 1016.0
20260831024004 78 0 0.0 0.0 0.00 0.00 0.00 80 1016.0
20260831023504 77 0 0.0 0.0 0.00 0.00 0.00 81 1015.9
20260831023217 78 0 0.0 0.0 0.00 0.00 0.00 81 1015.8
20260831022503 78 0 0.0 0.0 0.00 0.00 0.00 81 1015.7
20260831022004 78 0 0.0 0.0 0.00 0.00 0.00 81 1015.7
20260831021504 78 0 0.0 0.0 0.00 0.00 0.00 81 1015.7
20260831021004 78 103 0.0 1.0 0.00 0.00 0.00 81 1015.7
20260831020718 78 103 0.0 1.0 0.00 0.00 0.00 81 1015.6
20260831020004 78 0 0.0 0.0 0.00 0.00 0.00 80 1015.6
20260831015504 79 0 0.0 0.0 0.00 0.00 0.00 79 1015.7
20260831015004 79 0 0.0 0.0 0.00 0.00 0.00 79 1015.8
20260831014718 79 0 0.0 0.0 0.00 0.00 0.00 78 1015.7
20260831014004 80 0 0.0 0.0 0.00 0.00 0.00 77 1015.7
20260831013504 80 0 0.0 0.0 0.00 0.00 0.00 76 1015.6
20260831013219 80 0 0.0 0.0 0.00 0.00 0.00 76 1015.7
20260831012504 80 0 0.0 0.0 0.00 0.00 0.00 76 1015.4
20260831012004 80 0 0.0 0.0 0.00 0.00 0.00 75 1015.4
20260831011503 81 0 0.0 0.0 0.00 0.00 0.00 74 1015.5
20260831011004 81 0 0.0 0.0 0.00 0.00 0.00 73 1015.5
20260831010504 81 0 0.0 0.0 0.00 0.00 0.00 72 1015.4
20260831010004 82 0 0.0 0.0 0.00 0.00 0.00 72 1015.3
20260831005503 82 0 0.0 0.0 0.00 0.00 0.00 71 1015.3
20260831005003 82 0 0.0 0.0 0.00 0.00 0.00 71 1015.3
20260831004504 82 0 0.0 0.0 0.00 0.00 0.00 70 1015.3
20260831004003 83 0 0.0 0.0 0.00 0.00 0.00 70 1015.1
20260831003504 83 0 0.0 0.0 0.00 0.00 0.00 69 1015.2
20260831003003 84 0 0.0 0.0 0.00 0.00 0.00 68 1015.2
20260831002503 84 0 0.0 0.0 0.00 0.00 0.00 67 1015.2
20260831002004 85 0 0.0 0.0 0.00 0.00 0.00 65 1015.1
20260831001504 86 0 0.0 0.0 0.00 0.00 0.00 64 1015.1
20260831001003 87 0 0.0 0.0 0.00 0.00 0.00 62 1015.1
20260831000504 87 0 0.0 0.0 0.00 0.00 0.00 60 1015.2
20260831000004 87 0 0.0 0.0 0.00 0.00 0.00 58 1015.0
20260830235717 87 0 0.0 0.0 0.00 0.00 0.00 57 1015.0
20260830235004 88 0 0.0 0.0 0.00 0.00 0.00 57 1015.0
20260830234503 88 0 0.0 0.0 0.00 0.00 0.00 57 1015.0
20260830234003 88 0 0.0 0.0 0.00 0.00 0.00 56 1015.0
20260830233504 89 0 0.0 0.0 0.00 0.00 0.00 56 1014.9